Location: Quaker Farms
(41.4276°N, 73.1557°W)
Time: 01:05:57
(UTC+00:00)

Altair - Pass Details

Date: 18 June 2021
Orbit: 1501 x 1682 km, 47.2° (Epoch: 23 July)

Event Time Altitude Azimuth Distance (km) Brightness Sun altitude
Rises 02:44:54 0° 292° (WNW) 4,890 11.0 -18.6°
Reaches altitude 10° 02:49:02 10° 278° (W) 3,920 10.1 -19.0°
Maximum altitude 02:55:54 21° 234° (SW) 3,131 9.0 -19.6°
Enters shadow 03:01:30 13° 196° (SSW) 3,678 9.1 -20.1°
Drops below altitude 10° 03:02:49 10° 190° (S) 3,933 - -20.3°
Sets 03:07:01 0° 176° (S) 4,911 - -20.6°
